TimeCST,TemperatureF,Dew PointF,Humidity,Sea Level PressureIn,VisibilityMPH,Wind Direction,Wind SpeedMPH,Gust SpeedMPH,PrecipitationIn,Events,Conditions,WindDirDegrees,DateUTC
12:51 AM,34.0,26.1,73,30.38,8.0,South,9.2,-,N/A,,Mostly Cloudy,190,2012-11-15 06:51:00
1:51 AM,33.1,25.0,72,30.38,7.0,South,8.1,-,N/A,,Scattered Clouds,180,2012-11-15 07:51:00
2:51 AM,32.0,26.1,79,30.37,7.0,South,6.9,-,N/A,,Partly Cloudy,180,2012-11-15 08:51:00
3:51 AM,32.0,26.1,79,30.37,7.0,South,6.9,-,N/A,,Partly Cloudy,190,2012-11-15 09:51:00
4:51 AM,32.0,26.6,80,30.35,7.0,SSW,5.8,-,N/A,,Scattered Clouds,200,2012-11-15 10:51:00
5:51 AM,32.0,26.1,79,30.37,7.0,SSW,5.8,-,N/A,,Mostly Cloudy,200,2012-11-15 11:51:00
6:51 AM,31.1,26.1,82,30.37,7.0,SSW,4.6,-,N/A,,Mostly Cloudy,210,2012-11-15 12:51:00
7:51 AM,32.0,27.0,82,30.40,7.0,SSW,5.8,-,N/A,,Overcast,210,2012-11-15 13:51:00
8:51 AM,34.0,28.0,79,30.40,7.0,SSW,5.8,-,N/A,,Overcast,200,2012-11-15 14:51:00
9:51 AM,36.0,28.0,73,30.40,7.0,South,4.6,-,N/A,,Overcast,190,2012-11-15 15:51:00
10:51 AM,41.0,30.0,65,30.39,8.0,SSW,8.1,-,N/A,,Overcast,200,2012-11-15 16:51:00
11:51 AM,43.0,30.9,62,30.37,9.0,SW,5.8,-,N/A,,Overcast,230,2012-11-15 17:51:00
12:51 PM,45.0,28.9,53,30.34,10.0,SW,5.8,-,N/A,,Mostly Cloudy,230,2012-11-15 18:51:00
1:51 PM,46.0,28.0,50,30.32,10.0,SSW,6.9,-,N/A,,Mostly Cloudy,200,2012-11-15 19:51:00
2:51 PM,46.9,28.0,48,30.32,10.0,SSW,6.9,-,N/A,,Mostly Cloudy,210,2012-11-15 20:51:00
3:51 PM,46.0,28.0,50,30.33,10.0,South,5.8,-,N/A,,Mostly Cloudy,190,2012-11-15 21:51:00
4:51 PM,44.1,28.0,53,30.34,10.0,SW,4.6,-,N/A,,Scattered Clouds,220,2012-11-15 22:51:00
5:51 PM,41.0,28.0,60,30.35,10.0,SW,3.5,-,N/A,,Scattered Clouds,220,2012-11-15 23:51:00
6:51 PM,35.1,27.0,72,30.36,10.0,SW,4.6,-,N/A,,Scattered Clouds,220,2012-11-16 00:51:00
7:51 PM,34.0,27.0,75,30.36,10.0,SSW,3.5,-,N/A,,Partly Cloudy,200,2012-11-16 01:51:00
8:51 PM,37.0,28.9,73,30.37,10.0,SW,5.8,-,N/A,,Partly Cloudy,230,2012-11-16 02:51:00
9:51 PM,33.1,28.0,82,30.38,10.0,SSW,3.5,-,N/A,,Partly Cloudy,200,2012-11-16 03:51:00
10:51 PM,33.1,27.0,78,30.37,9.0,Calm,Calm,-,N/A,,Clear,0,2012-11-16 04:51:00
11:51 PM,30.9,26.1,82,30.38,9.0,Calm,Calm,-,N/A,,Clear,0,2012-11-16 05:51:00